Simultaneous Nadir Overpasses (SNOs) Predictions

Prediction of SNOs between LANDSAT-8 and NOAA-19 Satellite Orbit:

Table of predicted SNOs for the next 14.0 days since TLE Epoch: 1/19/2019
Index Date (LANDSAT-8) Time (LANDSAT-8) Lat,Lon (LANDSAT-8) SZA (LANDSAT-8 ) Date (NOAA-19) Time (NOAA-19) Lat,Lon (NOAA-19) SZA (NOAA-19 ) Distance(km) Time Diff (sec)
1 01/20/2019 00:19:56 78.39,-167.69 98.90 01/20/2019 00:19:11 78.38,-167.63 98.89 1.44 45
2 01/20/2019 01:09:24 -78.35, -0.21 81.15 01/20/2019 01:10:11 -78.37, -0.29 81.13 2.47 47
3 01/22/2019 05:53:40 -78.40, -71.07 81.59 01/22/2019 05:52:41 -78.40, -71.04 81.60 0.96 59
4 01/22/2019 06:43:06 78.39, 96.52 98.39 01/22/2019 06:43:40 78.37, 96.43 98.38 2.63 34
5 01/24/2019 11:27:22 78.42, 25.64 97.92 01/24/2019 11:26:10 78.43, 25.53 97.90 2.57 72
6 01/24/2019 12:16:50 -78.40,-166.86 82.13 01/24/2019 12:17:10 -78.37,-166.85 82.15 3.41 20
7 01/26/2019 17:50:33 78.38, -70.39 97.30 01/26/2019 17:50:39 78.41, -70.43 97.33 4.13 6
8 01/28/2019 23:24:17 -78.39, 26.24 83.28 01/28/2019 23:24:10 -78.41, 26.30 83.26 2.49 7
9 01/31/2019 04:57:59 78.41, 122.90 96.14 01/31/2019 04:57:37 78.43, 122.90 96.15 2.35 22




NCC Satellite Simultaneous Nadir Overpasses (SNOs) Prediction Service
